[[{"header":{"parameterUnit":"m.s-1","parameterCategory":1,"la1":30.2991,"la2":30.254,"lo1":-89.0895,"lo2":-89.0444,"dy":0.0017,"dx":0.0017,"nx":28,"ny":28,"refTime":"2024-06-08T03:00:00:Z","depth":0,"parameterNumber":2,"parameterNumberName":"U-component_of_WINDS"},"data":[0,0,0,0,0,0,0,0,0,0,0,0,0,0,0,0,0,0,0,0,0,0,0,0,0,0,0,0,0,0,0,0,0,0,0,0,0,0,0,0,0,0,0,0,0,0,0,0,0,0,0,0,0,0,0,0,0,0,-3.3844,-3.3844,0,-3.3812,-3.3812,-3.3811,-3.3736,-3.3734,-3.3732,-3.3731,-3.37,-3.3701,-3.3701,0,0,0,0,0,0,0,0,0,0,0,0,0,-3.3843,-3.3843,-3.3844,-3.3844,-3.3844,-3.3812,-3.3812,-3.3811,-3.3736,-3.3734,-3.3732,-3.373,-3.37,-3.3701,-3.3701,0,0,0,0,0,0,0,0,0,0,0,0,0,-3.3831,-3.3843,-3.3844,-3.3802,-3.3798,-3.3812,-3.3812,-3.3811,-3.3736,-3.3734,-3.3732,-3.3729,-3.37,-3.3701,-3.3702,-3.3755,0,0,-3.3705,-3.3705,0,0,0,0,0,0,0,0,-3.3831,-3.3831,-3.3809,-3.3805,-3.38,-3.3775,-3.38,-3.3793,-3.3737,-3.376,-3.3731,-3.3728,-3.3727,-3.3726,-3.3725,-3.3754,-3.3752,-3.3705,-3.3705,-3.3706,-3.3706,0,0,0,0,0,0,0,-3.3832,-3.3832,-3.3832,-3.3808,-3.3803,-3.3785,-3.3781,-3.3798,-3.3757,-3.3758,-3.3752,-3.3749,-3.3725,-3.3724,-3.3724,-3.3752,-3.3705,-3.3705,-3.3706,-3.3706,-3.3824,-3.3826,0,0,0,0,0,0,-3.3839,-3.3833,-3.3833,-3.3831,-3.381,-3.3787,-3.3782,-3.3786,-3.3757,-3.375,-3.3751,-3.3746,-3.3724,-3.3723,-3.3722,-3.3784,-3.3706,-3.3707,-3.3707,-3.3821,-3.3825,-3.3827,0,0,0,0,0,0,-3.3839,-3.384,-3.3834,-3.383,-3.3828,-3.379,-3.3794,-3.3787,-3.3786,-3.3752,-3.3745,-3.3758,-3.3722,-3.3721,-3.3748,-3.3782,-3.3707,-3.3708,-3.3819,-3.3822,-3.3826,-3.3907,0,0,0,0,0,0,-3.3839,-3.384,-3.386,-3.3831,-3.3829,-3.3859,-3.3796,-3.3788,-3.3788,-3.378,-3.3757,-3.375,-3.372,-3.3747,-3.3749,-3.3782,-3.3709,-3.3815,-3.382,-3.3825,-3.3901,-3.3913,-3.3923,0,0,0,0,0,-3.384,-3.3884,-3.3861,-3.3861,-3.3852,-3.3861,-3.386,-3.3823,-3.3791,-3.381,-3.3789,-3.3751,-3.3778,-3.375,-3.3752,-3.3786,-3.3813,-3.3819,-3.3824,-3.3896,-3.3911,-3.3923,0,0,0,0,0,0,-3.3918,-3.3879,-3.3853,-3.389,-3.3879,-3.3848,-3.3872,-3.384,-3.3839,-3.3832,-3.3787,-3.3783,-3.3816,-3.3803,-3.3773,-3.3836,-3.3789,-3.3796,-3.3843,-3.3857,-3.3868,-3.387,-3.3709,0,0,0,0,0,-3.3939,-3.3949,-3.3915,-3.3951,-3.3947,-3.3911,-3.3913,-3.3886,-3.3874,-3.3869,-3.3849,-3.3839,-3.3845,-3.385,-3.3854,-3.3899,-3.3893,-3.3923,-3.3934,-3.3944,-3.395,-3.3974,-3.3987,-3.3846,-3.3846,-3.3846,0,0,-3.3983,-3.3964,-3.3973,-3.3966,-3.3954,-3.3967,-3.3907,-3.3923,-3.3932,-3.3872,-3.3895,-3.3881,-3.3867,-3.3903,-3.3918,-3.3894,-3.3987,-3.3951,-3.3958,-3.3959,-3.3981,-3.3994,-3.4006,-3.385,-3.3849,-3.3849,0,0,-3.407,-3.4056,-3.4084,-3.4074,-3.4058,-3.4034,-3.4041,-3.4015,-3.4003,-3.4026,-3.3981,-3.3992,-3.4003,-3.3995,-3.3993,-3.4078,-3.4044,-3.4081,-3.4139,-3.4163,-3.4174,-3.4183,-3.4215,-3.4226,-3.4087,-3.4087,-3.4087,0,-3.4128,-3.4144,-3.4103,-3.4121,-3.412,-3.4066,-3.4095,-3.4087,-3.4073,-3.4074,-3.4047,-3.406,-3.4047,-3.4081,-3.4102,-3.4102,-3.4109,-3.4083,-3.4175,-3.4185,-3.4193,-3.4222,-3.4234,-3.4092,-3.4091,-3.4091,-3.409,0,-3.4215,-3.4227,-3.4252,-3.424,-3.4241,-3.4265,-3.4229,-3.4235,-3.4208,-3.4187,-3.4212,-3.4195,-3.4194,-3.42,-3.4174,-3.4231,-3.4217,-3.4183,-3.4135,-3.4212,-3.4239,-3.4249,-3.4098,-3.4096,-3.4095,-3.4094,0,0,-3.435,-3.4315,-3.4325,-3.4319,-3.4298,-3.4307,-3.4329,-3.4328,-3.4335,-3.4327,-3.4345,-3.4356,-3.4325,-3.4322,-3.4295,-3.4316,-3.4386,-3.4279,-3.4278,-3.4301,-3.4449,-3.4475,-3.4488,-3.4363,-3.4365,-3.4366,-3.445,0,-3.4433,-3.4467,-3.4431,-3.4473,-3.4485,-3.4434,-3.4453,-3.4442,-3.4424,-3.4431,-3.4411,-3.442,-3.4377,-3.4376,-3.4394,-3.4373,-3.4415,-3.4367,-3.438,-3.4381,-3.4386,-3.4502,-3.4529,-3.4609,-3.446,-3.4462,-3.4463,0,-3.4533,-3.453,-3.4573,-3.455,-3.4553,-3.4571,-3.4568,-3.4575,-3.4563,-3.4548,-3.4545,-3.4512,-3.4533,-3.4486,-3.4514,-3.4482,-3.4486,-3.4477,-3.4479,-3.4479,-3.4427,-3.4507,-3.4634,-3.4646,-3.4479,-3.4478,-3.4477,0,-3.4628,-3.4635,-3.4662,-3.4658,-3.4631,-3.4645,-3.4635,-3.462,-3.4622,-3.4619,-3.462,-3.4621,-3.4621,-3.4623,-3.4591,-3.4559,-3.4624,-3.4574,-3.4613,-3.4614,-3.4629,-3.4629,-3.476,-3.4631,-3.463,-3.463,-3.463,0,-3.4724,-3.4753,-3.4704,-3.4721,-3.4752,-3.4711,-3.4743,-3.4728,-3.4715,-3.4729,-3.4685,-3.4698,-3.4655,-3.4665,-3.464,-3.4668,-3.4668,-3.4658,-3.4651,-3.4662,-3.4664,-3.4664,-3.4658,-3.4633,-3.4633,-3.4632,-3.4631,0,-3.4835,-3.4804,-3.483,-3.4802,-3.4796,-3.4821,-3.4797,-3.4812,-3.4791,-3.4809,-3.481,-3.4777,-3.4786,-3.4755,-3.4758,-3.4742,-3.4784,-3.4767,-3.4788,-3.4783,-3.4824,-3.4821,-3.4961,-3.4977,-3.4837,-3.4838,-3.484,0,-3.4899,-3.492,-3.4894,-3.49,-3.4892,-3.4902,-3.4903,-3.4865,-3.4869,-3.4857,-3.4873,-3.4879,-3.4881,-3.4898,-3.4875,-3.4878,-3.4862,-3.491,-3.4862,-3.4873,-3.4864,-3.4863,-3.4865,-3.4921,-3.4923,-3.4924,-3.4925,0,-3.5015,-3.4999,-3.5003,-3.5002,-3.5005,-3.5003,-3.4998,-3.5005,-3.4963,-3.497,-3.4979,-3.4981,-3.4985,-3.4991,-3.4989,-3.4979,-3.4946,-3.4941,-3.495,-3.4962,-3.4973,-3.4968,-3.4816,-3.4938,-3.4936,-3.4935,-3.4935,-3.4934,-3.5105,-3.5121,-3.5106,-3.5113,-3.5105,-3.5101,-3.5114,-3.5094,-3.51,-3.51,-3.5077,-3.5091,-3.5079,-3.5073,-3.5067,-3.5077,-3.5055,-3.5068,-3.5072,-3.5076,-3.5083,-3.4971,-3.5077,-3.5076,-3.5076,-3.5076,-3.5075,0,-3.5219,-3.5207,-3.5214,-3.5208,-3.5213,-3.518,-3.5173,-3.518,-3.5192,-3.5184,-3.5187,-3.5197,-3.5204,-3.5181,-3.5184,-3.5197,-3.5182,-3.52,-3.5199,-3.5197,-3.5103,-3.5095,-3.5212,-3.5212,-3.5212,-3.5212,-3.5212,-3.5212,-3.528,-3.5306,-3.5288,-3.5311,-3.5299,-3.5311,-3.531,-3.5307,-3.53,-3.5314,-3.5318,-3.5303,-3.529,-3.5292,-3.5296,-3.529,-3.5293,-3.5316,-3.5305,-3.5217,-3.5204,-3.5191,-3.5183,-3.5317,-3.5317,-3.5398,-3.5399,-3.5399]},{"header":{"parameterUnit":"m.s-1","parameterCategory":1,"la1":30.2991,"la2":30.254,"lo1":-89.0895,"lo2":-89.0444,"dy":0.0017,"dx":0.0017,"nx":28,"ny":28,"refTime":"2024-06-08T03:00:00:Z","depth":0,"parameterNumber":3,"parameterNumberName":"V-component_of_WINDS"},"data":[0,0,0,0,0,0,0,0,0,0,0,0,0,0,0,0,0,0,0,0,0,0,0,0,0,0,0,0,0,0,0,0,0,0,0,0,0,0,0,0,0,0,0,0,0,0,0,0,0,0,0,0,0,0,0,0,0,0,-0.7135,-0.7136,0,-0.715,-0.7151,-0.7151,-0.7121,-0.712,-0.7119,-0.7118,-0.7134,-0.7135,-0.7136,0,0,0,0,0,0,0,0,0,0,0,0,0,-0.708,-0.7081,-0.7135,-0.7136,-0.7136,-0.715,-0.7151,-0.7151,-0.7121,-0.712,-0.7119,-0.7117,-0.7133,-0.7135,-0.7136,0,0,0,0,0,0,0,0,0,0,0,0,0,-0.7101,-0.7082,-0.7135,-0.7123,-0.7122,-0.715,-0.7151,-0.7151,-0.7121,-0.712,-0.7118,-0.7117,-0.7133,-0.7135,-0.7137,-0.7178,0,0,-0.7143,-0.7144,0,0,0,0,0,0,0,0,-0.7099,-0.7103,-0.7124,-0.7124,-0.7122,-0.7132,-0.7137,-0.716,-0.7122,-0.7121,-0.7118,-0.7116,-0.7134,-0.7136,-0.7142,-0.7179,-0.718,-0.7143,-0.7144,-0.7145,-0.7146,0,0,0,0,0,0,0,-0.7098,-0.7102,-0.7141,-0.7125,-0.7124,-0.7116,-0.7117,-0.7141,-0.7136,-0.7121,-0.7119,-0.7121,-0.7134,-0.714,-0.7142,-0.718,-0.7143,-0.7145,-0.7146,-0.7147,-0.7251,-0.7253,0,0,0,0,0,0,-0.7098,-0.7101,-0.7141,-0.7142,-0.7107,-0.7118,-0.712,-0.7131,-0.7136,-0.7135,-0.7123,-0.712,-0.7138,-0.714,-0.7143,-0.7192,-0.7145,-0.7147,-0.7148,-0.725,-0.7252,-0.7253,0,0,0,0,0,0,-0.7097,-0.7102,-0.714,-0.7121,-0.7125,-0.7121,-0.7133,-0.7132,-0.7138,-0.7137,-0.7135,-0.7131,-0.7137,-0.714,-0.717,-0.7192,-0.7148,-0.715,-0.7248,-0.725,-0.7252,-0.7291,0,0,0,0,0,0,-0.7096,-0.7102,-0.7118,-0.7121,-0.7126,-0.7167,-0.7135,-0.7133,-0.7142,-0.7139,-0.7144,-0.7143,-0.7136,-0.7167,-0.7172,-0.7194,-0.7151,-0.7246,-0.7249,-0.7252,-0.7287,-0.7294,-0.73,0,0,0,0,0,-0.7094,-0.7128,-0.7119,-0.7124,-0.7146,-0.7168,-0.7171,-0.7162,-0.7144,-0.716,-0.7158,-0.7143,-0.7189,-0.717,-0.7175,-0.7199,-0.7244,-0.7248,-0.7252,-0.7285,-0.7293,-0.7299,0,0,0,0,0,0,-0.7128,-0.7129,-0.7118,-0.7155,-0.7162,-0.7163,-0.7183,-0.7171,-0.7183,-0.718,-0.7167,-0.7169,-0.7201,-0.7202,-0.7182,-0.7239,-0.7213,-0.7218,-0.7237,-0.7244,-0.725,-0.725,-0.7153,0,0,0,0,0,-0.714,-0.7158,-0.7157,-0.719,-0.7194,-0.7188,-0.7197,-0.7189,-0.7196,-0.7199,-0.72,-0.7207,-0.7223,-0.7234,-0.7248,-0.7287,-0.7288,-0.7306,-0.7312,-0.7317,-0.7321,-0.7341,-0.7349,-0.7265,-0.7265,-0.7265,0,0,-0.7165,-0.7167,-0.7179,-0.7197,-0.7201,-0.722,-0.7191,-0.7212,-0.7226,-0.7202,-0.723,-0.7231,-0.7238,-0.7273,-0.7288,-0.7275,-0.7344,-0.7321,-0.7325,-0.7327,-0.7346,-0.7354,-0.7361,-0.7267,-0.7267,-0.7267,0,0,-0.7219,-0.7223,-0.725,-0.7255,-0.7262,-0.7258,-0.7264,-0.7267,-0.7267,-0.7295,-0.7277,-0.7293,-0.7321,-0.7327,-0.7333,-0.7389,-0.7375,-0.7394,-0.7426,-0.7446,-0.7453,-0.7458,-0.7478,-0.7486,-0.7398,-0.7398,-0.7398,0,-0.7249,-0.7277,-0.7266,-0.7288,-0.7296,-0.7275,-0.7302,-0.7307,-0.7319,-0.7325,-0.731,-0.7344,-0.7347,-0.7382,-0.7396,-0.7402,-0.7409,-0.7393,-0.7453,-0.7458,-0.7464,-0.7482,-0.749,-0.74,-0.74,-0.74,-0.74,0,-0.7313,-0.7333,-0.7354,-0.7365,-0.7375,-0.74,-0.7392,-0.7404,-0.7395,-0.7392,-0.742,-0.7423,-0.7437,-0.7445,-0.7436,-0.7479,-0.7471,-0.7455,-0.7429,-0.7474,-0.7492,-0.7499,-0.7403,-0.7403,-0.7402,-0.7401,0,0,-0.7391,-0.7395,-0.7403,-0.7408,-0.7413,-0.7428,-0.7451,-0.7465,-0.7475,-0.7483,-0.7503,-0.7526,-0.7511,-0.7518,-0.751,-0.7527,-0.7571,-0.7509,-0.7509,-0.752,-0.7618,-0.763,-0.7639,-0.7561,-0.7563,-0.7564,-0.7617,0,-0.7445,-0.7486,-0.7476,-0.7516,-0.7533,-0.7513,-0.7533,-0.7539,-0.7536,-0.7551,-0.7548,-0.7565,-0.7544,-0.7548,-0.7564,-0.7562,-0.759,-0.7558,-0.7579,-0.758,-0.7579,-0.7648,-0.7661,-0.7711,-0.7624,-0.7625,-0.7626,0,-0.7514,-0.7525,-0.7567,-0.7569,-0.7576,-0.7594,-0.7606,-0.762,-0.7625,-0.7622,-0.763,-0.7618,-0.7641,-0.7614,-0.7645,-0.7624,-0.7631,-0.7632,-0.7633,-0.7635,-0.7606,-0.7652,-0.7727,-0.7735,-0.7636,-0.7635,-0.7635,0,-0.7567,-0.7592,-0.762,-0.7624,-0.7627,-0.7641,-0.7642,-0.7646,-0.7655,-0.7665,-0.767,-0.7683,-0.769,-0.77,-0.7691,-0.7673,-0.7724,-0.7697,-0.7722,-0.7722,-0.7734,-0.7734,-0.7812,-0.7739,-0.7739,-0.7738,-0.7738,0,-0.7629,-0.7655,-0.7643,-0.7661,-0.7689,-0.7677,-0.7706,-0.7705,-0.7709,-0.7725,-0.7708,-0.7724,-0.7712,-0.7726,-0.772,-0.7746,-0.775,-0.7748,-0.7746,-0.775,-0.775,-0.7755,-0.7752,-0.774,-0.774,-0.774,-0.7739,0,-0.7693,-0.7686,-0.7715,-0.7715,-0.7716,-0.7737,-0.7737,-0.7753,-0.7749,-0.777,-0.7774,-0.7768,-0.7784,-0.7777,-0.7794,-0.7789,-0.7824,-0.7817,-0.7822,-0.782,-0.7846,-0.7844,-0.7931,-0.7942,-0.7861,-0.7862,-0.7863,0,-0.7733,-0.7753,-0.7755,-0.7765,-0.7768,-0.7784,-0.7793,-0.7781,-0.7791,-0.7798,-0.7813,-0.7827,-0.7839,-0.7866,-0.7863,-0.7876,-0.7869,-0.7899,-0.7871,-0.7874,-0.787,-0.7869,-0.7871,-0.7905,-0.7906,-0.7906,-0.7907,0,-0.7806,-0.7801,-0.7814,-0.7826,-0.7836,-0.7845,-0.7853,-0.7861,-0.785,-0.7862,-0.7878,-0.7887,-0.7904,-0.7919,-0.793,-0.7931,-0.7918,-0.7916,-0.7922,-0.7927,-0.7929,-0.7928,-0.7838,-0.7914,-0.7913,-0.7913,-0.7912,-0.7912,-0.7859,-0.7875,-0.7879,-0.7894,-0.7898,-0.7905,-0.792,-0.7918,-0.7931,-0.7944,-0.7936,-0.7955,-0.7959,-0.7973,-0.7976,-0.7991,-0.7979,-0.7989,-0.7991,-0.7994,-0.7997,-0.7926,-0.7993,-0.7993,-0.7992,-0.7992,-0.7992,0,-0.7931,-0.7932,-0.7946,-0.7956,-0.7968,-0.7953,-0.796,-0.7971,-0.7988,-0.7993,-0.8004,-0.8022,-0.8037,-0.8034,-0.8047,-0.8059,-0.8053,-0.8063,-0.8062,-0.8063,-0.8007,-0.8,-0.8068,-0.8068,-0.8068,-0.8068,-0.8068,-0.8068,-0.7969,-0.7996,-0.7992,-0.802,-0.8021,-0.8039,-0.8045,-0.8051,-0.8055,-0.8076,-0.8088,-0.8086,-0.8088,-0.81,-0.8113,-0.8111,-0.8117,-0.813,-0.8126,-0.8074,-0.8067,-0.806,-0.8053,-0.8131,-0.8131,-0.8181,-0.8181,-0.8182]}]]